Flag for France Weather past 2 weeks in Amsterdam Island, French Southern Territories, France

Now
51 °F

Cool.


Feels Like: 44 °F
Forecast: 55 / 58 °F
Wind: 22 mph from West

Location: Martin De Vivies Ile Amsterdam

Current Time: Aug 1, 2014 at 1:03:57 AM

Latest Report: Aug 1, 2014 at 12:00 AM


Visibility: N/A

Pressure: 30.02 "Hg

Humidity: 66%

Dew point: 40 °F

Location of Amsterdam IslandLocation

Historic Weather in Amsterdam Island — Graph

°F

Amsterdam Island temperature yesterday

Maximum temperature yesterday: 56 °F (at 2:00 AM)
Minimum temperature yesterday: 48 °F (at 2:00 PM)
Average temperature yesterday: 52 °F

Past Weeks' High & Low Weather Summary

 TemperatureHumidityPressure
High61 °F (Jul 22, 12:00 PM)98% (Jul 20, 4:00 PM)30.49 "Hg (Jul 20, 4:00 PM)
Low42 °F (Jul 24, 12:00 PM)54% (Jul 24, 1:00 PM)29.44 "Hg (Jul 23, 5:00 AM)
Average54 °F83%30.06 "Hg
* Reported Midnight between Jul 16 and Jul 17 — Midnight between Jul 31 and Aug 1, Amsterdam Island, Weather by CustomWeather, © 2014

Note: Actual official high and low records may vary slightly from our data, if they occured in-between our weather recording intervals... More about our weather records

Advertising

Amsterdam Island weather history for previous 24 hours

 ConditionsComfort  
Time TempWeatherWind HumidityBarometerVisibility
12:00 AM
Aug 1
51 °FCool.22 mph66%30.02 "HgN/A
11:00 PM
Jul 31
50 °FCool.23 mph68%30.01 "HgN/A
10:00 PM50 °FCool.26 mph67%30.00 "HgN/A
9:00 PM50 °FCool.28 mph65%29.98 "HgN/A
8:00 PM50 °FCool.28 mph67%29.96 "HgN/A
7:00 PM49 °FCool.26 mph80%29.94 "HgN/A
6:00 PM49 °FCool.25 mph81%29.90 "HgN/A
5:00 PM50 °FCool.28 mph72%29.86 "HgN/A
4:00 PM48 °FCool.22 mph86%29.83 "HgN/A
3:00 PM53 °FCool.26 mph71%29.78 "HgN/A
2:00 PM48 °FCool.33 mph80%29.77 "HgN/A
1:00 PM54 °FCool.38 mph62%29.73 "HgN/A
12:00 PM54 °FCool.32 mph71%29.72 "HgN/A
11:00 AM53 °FCool.33 mph75%29.72 "HgN/A
10:00 AM52 °FCool.24 mph78%29.71 "HgN/A
9:00 AM54 °FCool.28 mph71%29.68 "HgN/A
8:00 AM49 °FCool.25 mph78%29.68 "HgN/A
7:00 AM51 °FCool.30 mph76%29.65 "HgN/A
6:00 AM54 °FCool.32 mph72%29.62 "HgN/A
5:00 AM53 °FCool.30 mph79%29.59 "HgN/A
4:00 AM53 °FCool.37 mph79%29.60 "HgN/A
3:00 AM50 °FCool.25 mph93%29.63 "HgN/A
2:00 AM56 °FCool.44 mph85%29.58 "HgN/A
1:00 AM56 °FCool.41 mph83%29.63 "HgN/A
Weather by CustomWeather, © 2014

See weather overviewHow to use our weather pages